Flag for Brazil Weather past 2 weeks in Belém, Para, Brazil

Now
75 °F

Clear.


Feels Like: 75 °F
Forecast: 75 / 87 °F
Wind: 7 mph from East

Location: Belem Aeroporto

Current Time: Jul 24, 2014 at 1:50:28 AM

Latest Report: Jul 24, 2014 at 1:00 AM


Visibility: 10 mi

Pressure: 29.92 "Hg

Humidity: 89%

Dew point: 72 °F

Location of BelémLocation

Historic Weather in Belém — Graph

°F

Belém temperature yesterday

Maximum temperature yesterday: 88 °F (at 1:00 PM)
Minimum temperature yesterday: 73 °F (at 6:00 AM)
Average temperature yesterday: 80 °F

Past Weeks' High & Low Weather Summary

 TemperatureHumidityPressure
High90 °F (Jul 12, 4:00 PM)100% (Jul 9, 7:00 PM)30.04 "Hg (Jul 9, 7:00 PM)
Low39 °F (Jul 12, 7:00 PM)49% (Jul 23, 4:00 PM)29.83 "Hg (Jul 9, 3:00 PM)
Average79 °F82%29.95 "Hg
* Reported Midnight between Jul 8 and Jul 9 — Midnight between Jul 23 and Jul 24, Belém, Weather by CustomWeather, © 2014

Note: Actual official high and low records may vary slightly from our data, if they occured in-between our weather recording intervals... More about our weather records

Advertising

Belém weather history for previous 24 hours

 ConditionsComfort  
Time TempWeatherWind HumidityBarometerVisibility
12:00 AM
Jul 24
77 °FClear.6 mph83%29.95 "Hg10 mi
11:00 PM
Jul 23
77 °FClear.6 mph83%29.95 "Hg10 mi
10:00 PM77 °FClear.6 mph89%29.95 "Hg10 mi
9:00 PM79 °FPartly cloudy.7 mph84%29.92 "HgN/A
8:00 PM79 °FPassing clouds.2 mph79%29.92 "HgN/A
7:00 PM82 °FPassing clouds.8 mph70%29.89 "HgN/A
6:00 PM82 °FScattered clouds.5 mph70%29.89 "HgN/A
5:00 PM86 °FBroken clouds.2 mph55%29.86 "HgN/A
4:00 PM88 °FScattered clouds.8 mph49%29.86 "HgN/A
3:00 PM86 °FScattered clouds.3 mph59%29.89 "HgN/A
2:00 PM88 °FPartly sunny.9 mph59%29.92 "HgN/A
1:00 PM88 °FPartly sunny.12 mph59%29.95 "HgN/A
12:00 PM86 °FPartly sunny.12 mph62%29.98 "HgN/A
11:00 AM86 °FPartly sunny.12 mph62%30.01 "HgN/A
10:00 AM84 °FBroken clouds.14 mph70%30.01 "HgN/A
9:00 AM81 °FSunny.9 mph79%30.01 "Hg10 mi
8:00 AM75 °FSunny.6 mph94%29.98 "Hg10 mi
7:00 AM75 °FSunny.6 mph89%29.98 "Hg10 mi
6:00 AM73 °FClear.3 mph94%29.95 "Hg10 mi
5:00 AM75 °FClear.3 mph89%29.92 "Hg10 mi
3:00 AM75 °FClear.8 mph89%29.92 "Hg10 mi
2:00 AM75 °FClear.6 mph89%29.95 "Hg10 mi
1:00 AM75 °FClear.8 mph89%29.95 "Hg10 mi
Weather by CustomWeather, © 2014

See weather overviewHow to use our weather pages